Terminal Aerodrome Forecast
Issued by NWS

Home | Current Version | Previous Version | Graphics & Text | Print | Product List | Glossary On
Versions: 1 2 3 4 5 6 7 8 9 10 11 12 13 14 15 16
000
FTUS43 KBIS 241200 AAA
TAFMOT
TAF AMD
KMOT 241231Z 2413/2512 22010KT P6SM BKN250
     FM241500 25015G21KT P6SM SCT100 BKN250
     FM241800 26024G35KT P6SM SCT100 BKN250
     FM250100 26012KT P6SM SCT100 BKN250=

USA.gov is the U.S. government's official web portal to all federal, state and local government web resources and services.